This demonstration page uses our WeatherBlox Daily Observations layout. Learn more.

Left ArrowRight Arrow

Hourly Observations for May 31, 2015

Temp ( °F °C ) Dew Point ( °F °C ) Humidity (%) Winds ( mph kmh ) Pressure ( in mb ) Visibility ( mi km ) Precip ( " mm )
12:53 am 00:53 Clear 65 18.3 60 15.6 84 84 E 9 15 30.09 1019 10 16 0.00 0.00
1:53 am 01:53 Partly Cloudy 65 18.3 59 15 81 81 ESE 8 13 30.08 1019 10 16 0.00 0.00
2:53 am 02:53 Clear 63 17.2 59 15 87 87 E 6 9 30.08 1019 10 16 0.00 0.00
3:53 am 03:53 Clear 62 16.7 58 14.4 86 86 E 5 7 30.07 1018 10 16 0.00 0.00
4:53 am 04:53 Clear 61 16.1 58 14.4 90 90 Calm 30.06 1018 10 16 0.00 0.00
5:30 am 05:30 Mostly Cloudy 61 16 57 14 88 88 Calm 30.12 1020 10 16 0.00 0.00
5:53 am 05:53 Mostly Cloudy 61 16.1 58 14.4 90 90 N 3 6 30.06 1018 10 16 0.00 0.00
6:45 am 06:45 Cloudy 61 16.1 59 15 93 93 NE 5 7 30.12 1020 10 16 0.00 0.00
6:53 am 06:53 Mostly Cloudy 61 16.1 58 14.4 90 90 NE 5 7 30.06 1018 9 14 0.00 0.00
7:53 am 07:53 Cloudy 62 16.7 59 15 90 90 E 5 7 30.07 1018 10 16 0.00 0.00
8:44 am 08:44 Cloudy 63 17 61 16 94 94 ESE 7 11 30.12 1020 10 16 0.00 0.00
8:53 am 08:53 Cloudy 63 17.2 60 15.6 90 90 ESE 8 13 30.09 1019 10 16 0.00 0.00
9:31 am 09:31 Cloudy 65 18.3 61 16.1 87 87 ESE 5 7 30.09 1019 10 16 0.00 0.00
9:53 am 09:53 Cloudy 66 18.9 60 15.6 81 81 SE 3 6 30.10 1019 10 16 0.00 0.00
10:29 am 10:29 Mostly Cloudy 70 21.1 61 16.1 73 73 Calm 30.06 1018 10 16 0.00 0.00
10:53 am 10:53 Cloudy 70 21.1 60 15.6 71 71 VRB 3 6 30.09 1019 10 16 0.00 0.00
11:01 am 11:01 Mostly Cloudy 70 21.1 60 15.6 71 71 SSW 6 9 30.06 1018 10 16 0.00 0.00
11:53 am 11:53 Partly Cloudy 72 22.2 59 15 64 64 SSE 6 9 30.08 1019 10 16 0.00 0.00
12:10 pm 12:10 Mostly Cloudy 72 22 59 15 65 65 VRB 3 6 30.06 1018 10 16 0.00 0.00
12:35 pm 12:35 Partly Cloudy 76 24.4 59 15 56 56 ESE 8 13 30.03 1017 10 16 0.00 0.00
12:53 pm 12:53 Mostly Sunny 76 24.4 58 14.4 54 54 SE 7 11 30.06 1018 10 16 0.00 0.00
1:53 pm 13:53 Sunny 79 26.1 58 14.4 49 49 undefined N/A 30.04 1017 10 16 0.00 0.00
2:53 pm 14:53 Sunny 81 27.2 58 14.4 45 45 SSE 8 13 30.01 1016 10 16 0.00 0.00
3:53 pm 15:53 Sunny 83 28.3 57 13.9 41 41 ESE 13 20 29.97 1015 10 16 0.00 0.00
4:53 pm 16:53 Sunny 84 28.9 56 13.3 38 38 SE 10 17 29.95 1014 10 16 0.00 0.00
5:53 pm 17:53 Sunny 84 28.9 56 13.3 38 38 SE 12 19 29.92 1013 10 16 0.00 0.00
6:53 pm 18:53 Sunny 83 28.3 55 12.8 38 38 SE 14 22 29.93 1013 10 16 0.00 0.00
7:53 pm 19:53 Sunny 81 27.2 53 11.7 38 38 SSE 12 19 29.92 1013 10 16 0.00 0.00
8:53 pm 20:53 Clear 77 25 56 13.3 48 48 SE 9 15 29.93 1014 10 16 0.00 0.00
9:53 pm 21:53 Clear 74 23.3 57 13.9 56 56 SE 8 13 29.93 1014 10 16 0.00 0.00
10:53 pm 22:53 Clear 72 22.2 58 14.4 61 61 SE 10 17 29.94 1014 10 16 0.00 0.00
11:53 pm 23:53 Clear 71 21.7 57 13.9 61 61 SSE 10 17 29.95 1014 10 16 0.00 0.00

Powered by AerisWeather